TimeEDT,TemperatureF,Dew PointF,Humidity,Sea Level PressureIn,VisibilityMPH,Wind Direction,Wind SpeedMPH,Gust SpeedMPH,PrecipitationIn,Events,Conditions,WindDirDegrees,DateUTC
12:53 AM,53.1,51.1,93,30.02,10.0,Calm,Calm,-,N/A,,Clear,0,2013-10-01 04:53:00
1:53 AM,53.1,50.0,89,30.03,10.0,Calm,Calm,-,N/A,,Clear,0,2013-10-01 05:53:00
2:53 AM,52.0,48.9,89,30.02,10.0,Calm,Calm,-,N/A,,Clear,0,2013-10-01 06:53:00
3:53 AM,51.1,48.0,89,30.01,10.0,Calm,Calm,-,N/A,,Clear,0,2013-10-01 07:53:00
4:53 AM,51.1,48.9,92,30.02,10.0,Calm,Calm,-,N/A,,Clear,0,2013-10-01 08:53:00
5:53 AM,50.0,46.9,89,30.03,10.0,Calm,Calm,-,N/A,,Clear,0,2013-10-01 09:53:00
6:53 AM,48.9,46.0,90,30.04,10.0,Calm,Calm,-,N/A,,Clear,0,2013-10-01 10:53:00
7:53 AM,52.0,48.9,89,30.04,9.0,Calm,Calm,-,N/A,,Clear,0,2013-10-01 11:53:00
8:53 AM,57.9,52.0,81,30.04,10.0,Calm,Calm,-,N/A,,Mostly Cloudy,0,2013-10-01 12:53:00
9:53 AM,63.0,53.1,70,30.04,10.0,Calm,Calm,-,N/A,,Clear,0,2013-10-01 13:53:00
10:53 AM,68.0,55.0,63,30.03,10.0,Calm,Calm,-,N/A,,Clear,0,2013-10-01 14:53:00
11:53 AM,73.9,55.9,53,30.01,10.0,Calm,Calm,-,N/A,,Clear,0,2013-10-01 15:53:00
12:53 PM,75.9,55.9,50,29.99,10.0,Calm,Calm,-,N/A,,Clear,0,2013-10-01 16:53:00
1:53 PM,78.1,55.0,45,29.96,10.0,West,4.6,-,N/A,,Clear,260,2013-10-01 17:53:00
2:53 PM,79.0,54.0,42,29.95,10.0,WNW,3.5,-,N/A,,Partly Cloudy,290,2013-10-01 18:53:00
3:53 PM,79.0,55.0,44,29.93,10.0,WNW,5.8,-,N/A,,Scattered Clouds,300,2013-10-01 19:53:00
4:53 PM,77.0,57.0,50,29.93,10.0,WNW,4.6,-,N/A,,Scattered Clouds,290,2013-10-01 20:53:00
5:53 PM,75.9,57.9,54,29.93,10.0,WNW,4.6,-,N/A,,Clear,290,2013-10-01 21:53:00
6:53 PM,72.0,57.9,61,29.94,10.0,Calm,Calm,-,N/A,,Clear,0,2013-10-01 22:53:00
7:53 PM,66.9,59.0,76,29.96,10.0,Calm,Calm,-,N/A,,Clear,0,2013-10-01 23:53:00
8:53 PM,64.9,59.0,81,29.97,10.0,Calm,Calm,-,N/A,,Clear,0,2013-10-02 00:53:00
9:53 PM,63.0,57.9,84,29.98,9.0,Calm,Calm,-,N/A,,Clear,0,2013-10-02 01:53:00
10:53 PM,62.1,57.0,84,29.97,8.0,Calm,Calm,-,N/A,,Clear,0,2013-10-02 02:53:00
11:53 PM,59.0,57.0,93,29.98,7.0,Calm,Calm,-,N/A,,Clear,0,2013-10-02 03:53:00